Location: Karlsruhe
(49.0131°N, 8.3874°E)
Time: 16:23:42
(UTC+02:00)

ISS - Pass Details

Date: 20 May 2021
Orbit: 419 x 422 km, 51.6° (Epoch: 25 June)

Event Time Altitude Azimuth Distance (km) Brightness Sun altitude
Rises 22:46:22 0° 269° (W) 2,369 0.6 -12.5°
Reaches altitude 10° 22:48:30 10° 274° (W) 1,506 -0.3 -12.8°
Maximum altitude 22:51:49 55° 353° (N) 516 -3.0 -13.1°
Drops below altitude 10° 22:55:09 10° 73° (ENE) 1,509 -1.1 -13.4°
Enters shadow 22:56:52 - 77° (ENE) 2,201 -0.3 -13.6°
